Location: Brabourne
(51.1333°N, 1.0000°E)
Time: 21:57:39
(UTC+00:00)

Cosmos 921 Rocket - Pass Details

Date: 20 June 2021
Orbit: 571 x 632 km, 75.8° (Epoch: 02 August)

Event Time Altitude Azimuth Distance (km) Brightness Sun altitude
Exits shadow 01:32:38 18° 186° (S) 1,426 4.3 -12.5°
Maximum altitude 01:35:36 65° 108° (ESE) 638 3.1 -12.4°
Drops below altitude 10° 01:39:45 10° 27° (NNE) 1,889 7.1 -12.1°
Sets 01:41:58 0° 24° (NNE) 2,792 8.6 -12.0°
